This is the latest recevied weather packets stored in our database for station/object N6SPP. If no packets are shown the sender has not sent any weather packets the latest 10 day(s).
| Time | Temp. | Humidity | Pressure | Rain* | Wind** | Luminosity | Snow |
|---|---|---|---|---|---|---|---|
| 1777507188 | 25.56° C | 46% | 1017.1 hPa | 0 mm | - | 350 W/m² | - |
| 1777506886 | 26.11° C | 42% | 1017.1 hPa | 0 mm | - | 365 W/m² | - |
| 1777506583 | 26.67° C | 40% | 1017.1 hPa | 0 mm | - | 378 W/m² | - |
| 1777506278 | 26.11° C | 36% | 1017.1 hPa | 0 mm | - | 395 W/m² | - |
| 1777505975 | 26.67° C | 35% | 1017.1 hPa | 0 mm | - | 409 W/m² | - |
| 1777505670 | 26.67° C | 35% | 1017.3 hPa | 0 mm | - | 423 W/m² | - |
| 1777505368 | 26.67° C | 34% | 1017.2 hPa | 0 mm | - | 240 W/m² | - |
| 1777505065 | 27.22° C | 34% | 1017.3 hPa | 0 mm | - | 450 W/m² | - |
| 1777504762 | 27.22° C | 31% | 1017.4 hPa | 0 mm | - | 465 W/m² | - |
| 1777504459 | 27.22° C | 33% | 1017.4 hPa | 0 mm | - | 479 W/m² | - |
| 1777504155 | 27.22° C | 29% | 1017.4 hPa | 0 mm | - | 493 W/m² | - |
| 1777503850 | 27.78° C | 30% | 1017.6 hPa | 0 mm | - | 507 W/m² | - |
| 1777503546 | 27.22° C | 30% | 1017.7 hPa | 0 mm | - | 520 W/m² | - |
| 1777503243 | 27.22° C | 32% | 1017.8 hPa | 0 mm | - | 533 W/m² | - |
| 1777502940 | 26.67° C | 31% | 1017.7 hPa | 0 mm | - | 547 W/m² | - |
| 1777502637 | 27.22° C | 34% | 1018 hPa | 0 mm | - | 558 W/m² | - |
| 1777502334 | 26.67° C | 33% | 1018 hPa | 0 mm | - | 569 W/m² | - |
| 1777502030 | 27.22° C | 33% | 1017.9 hPa | 0 mm | - | 581 W/m² | - |
| 1777501727 | 27.22° C | 33% | 1018 hPa | 0 mm | - | 589 W/m² | - |
| 1777501425 | 27.22° C | 34% | 1017.9 hPa | 0 mm | - | 601 W/m² | - |
| 1777501122 | 26.67° C | 32% | 1017.9 hPa | 0 mm | - | 606 W/m² | - |
| 1777500821 | 27.22° C | 33% | 1018 hPa | 0 mm | - | 310 W/m² | - |
| 1777500517 | 27.22° C | 33% | 1018.2 hPa | 0 mm | - | 634 W/m² | - |
| 1777500213 | 27.78° C | 32% | 1018.4 hPa | 0 mm | - | 644 W/m² | - |
| 1777499910 | 26.11° C | 37% | 1018.4 hPa | 0 mm | - | 651 W/m² | - |
* Rain latest hour (hover to see other rain measurements)
** Current wind speed in m/s (hover to see current wind gust speed)